Home > Weather > Seattle > Past weeks

Flag for USA Weather for the Past 2 Weeks in Seattle, Washington, USA

Now
62 °F

Passing clouds.


Feels Like: 62 °F
Forecast: 47 / 63 °F
Wind: 7 mph from North

Location: Seattle Boeing Field

Current Time: Apr 30, 2016 at 2:08:12 PM

Latest Report: Apr 30, 2016 at 12:53 PM


Visibility: 10 mi

Pressure: 30.35 "Hg

Humidity: 56%

Dew Point: 46 °F

Location of SeattleLocation

Historic Weather in Seattle — Graph

°F

Seattle Temperature Yesterday

Maximum temperature yesterday: 60 °F (at 6:53 PM)
Minimum temperature yesterday: 50 °F (at 8:53 AM)
Average temperature yesterday: 54 °F

High & Low Weather Summary for the Past Weeks

 TemperatureHumidityPressure
High88 °F (Apr 18, 3:53 PM)100% (Apr 25, 6:53 AM)30.38 "Hg (Apr 25, 6:53 AM)
Low43 °F (Apr 16, 4:53 AM)27% (Apr 18, 12:53 PM)29.61 "Hg (Apr 22, 7:53 AM)
Average58 °F68%30.05 "Hg
* Reported Apr 15 12:53 PM — Apr 30 12:53 PM, Seattle, Weather by CustomWeather, © 2016

Note: Actual official high and low records may vary slightly from our data, if they occured in-between our weather recording intervals... More about our weather records

Advertising

Seattle Weather History for the Previous 24 Hours

Scroll right to see more
 ConditionsComfort  
Time TempWeatherWind HumidityBarometerVisibility
12:53 PM
Sat, Apr 30
62 °FPassing clouds.7 mph56%30.35 "Hg10 mi
11:53 AM60 °FPartly sunny.6 mph62%30.35 "Hg10 mi
10:53 AM57 °FPartly sunny.No wind67%30.37 "Hg10 mi
9:53 AM55 °FPartly sunny.No wind74%30.37 "Hg10 mi
8:53 AM53 °FScattered clouds.3 mph80%30.38 "Hg10 mi
7:53 AM50 °FScattered clouds.No wind89%30.37 "Hg10 mi
6:53 AM47 °FScattered clouds.5 mph93%30.35 "Hg10 mi
5:53 AM45 °FPassing clouds.6 mph97%30.33 "Hg10 mi
4:53 AM49 °FPassing clouds.No wind86%30.32 "Hg10 mi
3:53 AM49 °FClear.No wind86%30.31 "Hg10 mi
2:53 AM50 °FPassing clouds.No wind83%30.29 "Hg10 mi
1:53 AM52 °FPassing clouds.No wind80%30.27 "Hg10 mi
12:53 AM52 °FPassing clouds.3 mph80%30.26 "Hg10 mi
11:53 PM
Fri, Apr 29
53 °FPassing clouds.8 mph80%30.24 "Hg10 mi
10:53 PM55 °FPassing clouds.3 mph74%30.22 "Hg10 mi
9:53 PM56 °FPassing clouds.No wind67%30.20 "Hg10 mi
8:53 PM57 °FPassing clouds.No wind62%30.18 "Hg10 mi
7:53 PM59 °FScattered clouds.3 mph56%30.17 "Hg10 mi
6:53 PM60 °FPassing clouds.3 mph53%30.16 "Hg10 mi
5:53 PM59 °FScattered clouds.No wind60%30.15 "Hg10 mi
4:53 PM59 °FMostly cloudy.6 mph62%30.14 "Hg10 mi
3:53 PM57 °FBroken clouds.No wind64%30.15 "Hg10 mi
2:53 PM57 °FOvercast.7 mph67%30.14 "Hg10 mi
Weather by CustomWeather, © 2016

See weather overviewHow to use our weather pages